Location: La Estación
(39.9833°N, 3.9500°W)
Time: 15:04:52
(UTC+00:00)

ERS-1 Rocket - Pass Details

Date: 14 June 2025
Orbit: 746 x 753 km, 98.2° (Epoch: 20 July)

Event Time Altitude Azimuth Distance (km) Brightness Sun altitude
Exits shadow 20:17:14 - 138° (SE) 2,580 5.1 -5.8°
Reaches altitude 10° 20:18:04 10° 134° (SE) 2,270 4.8 -5.9°
Maximum altitude 20:22:35 35° 69° (ENE) 1,194 3.8 -6.6°
Drops below altitude 10° 20:27:07 10° 5° (N) 2,281 6.0 -7.2°
Sets 20:29:34 0° 357° (N) 3,209 6.9 -7.6°
